Location: Clanezzo
(45.7500°N, 9.6000°E)
Time: 08:12:49
(UTC+00:00)

Gbstr 26 Del rocket - Pass Details

Date: 27 September 2021
Orbit: 492 x 1263 km, 51.8° (Epoch: 18 October)

Event Time Altitude Azimuth Distance (km) Brightness Sun altitude
Exits shadow 01:05:37 12° 114° (ESE) 2,816 6.5 -39.4°
Drops below altitude 10° 01:06:04 10° 114° (ESE) 2,967 6.6 -39.4°
Sets 01:08:37 0° 116° (ESE) 3,829 7.2 -39.1°
